Погода в Адене

Йемен     12°53′10″N   44°57′41″E
темп.,
°C
ветер,
м/с
пор.,
м/с
влажн.,
%
обл.,
%
осадки,
мм/ч
давл.,
гПа
погр.,
м
29 ноября, пн
пн2900:00+25св12640 0.0 101468
03:00+24в22650 0.0 101467
06:00+24всв346824 0.0 101591
09:00+28в44505 0.0 1017808
12:00+31вюв65422 0.0 10141272
15:00+30юв65442 0.0 10121103
18:00+27вюв44555 0.0 1014293
21:00+26в23610 0.0 1016142
30 ноября, вт
вт3000:00+25всв22670 0.0 1015104
03:00+24всв33710 0.0 1014102
06:00+23св33740 0.0 1015111
09:00+28всв33540 0.0 1016830
12:00+31юв64400 0.0 10131504
15:00+30ююв65440 0.0 10111024
18:00+27юв33520 0.0 1013286
21:00+25юв11570 0.0 1015145
1 декабря, ср
ср100:00+25в22600 0.0 101499
03:00+24св34630 0.0 1013111
06:00+23св34680 0.0 1014101
09:00+28всв56480 0.0 10151031
12:00+30вюв76390 0.0 10121472
15:00+29юв65390 0.0 10101171
18:00+26вюв34465 0.0 1012268
21:00+25всв34480 0.0 1014157
2 декабря, чт
чт200:00+24всв33520 0.0 1013134
03:00+23св34570 0.0 1012112
06:00+23св45600 0.0 1014138
09:00+27в66470 0.0 10161121
12:00+29вюв76410 0.0 10131416
15:00+29вюв66410 0.0 10121307
18:00+26в57520 0.0 1013342
21:00+25всв46550 0.0 1015223
3 декабря, пт
пт300:00+24св34590 0.0 1015148
03:00+23св34630 0.0 1013137
06:00+23св35660 0.0 1015134
09:00+27в55520 0.0 10171139
12:00+29вюв65470 0.0 10141414
15:00+28вюв65480 0.0 10121286
18:00+26вюв45582 0.0 1014350
21:00+25всв34610 0.0 1016187